Weather History for Whiteman AFB, MO

Change the Weather History Date:

Tuesday, December 3, 2013

  Actual Average Record
Temperature  
Mean Temperature 50 °F -  
Max Temperature 63 °F 46 °F 73 °F (2012)
Min Temperature 37 °F 30 °F 12 °F (2006)
Degree Days  
Heating Degree Days 15    
Moisture  
Dew Point 44 °F    
Average Humidity 89    
Maximum Humidity 100    
Minimum Humidity 57    
Precipitation  
Precipitation 0.00 in - - ()
Sea Level Pressure  
Sea Level Pressure 29.61 in    
Wind  
Wind Speed 10 mph (SSW)    
Max Wind Speed 16 mph    
Max Gust Speed -    
Visibility 4 miles    
Events Fog    
Averages and records for this station are not official NWS values.
T = Trace of Precipitation, MM = Missing Value Source: NWS Daily Summary

Daily Weather History Graph

Daily Weather History Graph

Search for Another Location

Airport:

Trip Planner

Search our weather history database for the weather conditions in past years. The results will help you decide how hot, cold, wet, or windy it might be!

Date:

Astronomy

Dec. 03, 2013 Rise Set
Actual Time 7:15 AM CST 4:52 PM CST
Civil Twilight 6:46 AM CST 5:22 PM CST
Nautical Twilight 6:12 AM CST 5:55 PM CST
Astronomical Twilight 5:40 AM CST 6:27 PM CST
Moon 7:45 AM CST (12/3) 5:56 PM CST (12/3)
Length of Visible Light 10h 36m
Length of Day
9h 37m
New Moon, 1% of the Moon is Illuminated
Dec 3
New Moon
Dec 9
First Quarter
Dec 17
Full
Dec 25
Last Quarter
Jan 1
New

Hourly Weather History & Observations

Time (CST) Temp. Windchill Dew Point Humidity Pressure Visibility Wind Dir Wind Speed Gust Speed Precip Events Conditions
12:58 AM 40.1 °F 35.3 °F 39.4 °F 97% 29.64 in 1.2 mi SSW 6.9 mph - N/A   Clear
1:03 AM 41.0 °F 35.8 °F 39.2 °F 93% 29.62 in 1.0 mi SSW 8.1 mph - N/A   Clear
1:13 AM 41.0 °F 35.8 °F 39.2 °F 93% 29.61 in 0.8 mi SSW 8.1 mph - N/A   Clear
1:58 AM 37.4 °F 30.3 °F 37.4 °F 100% 29.63 in 0.8 mi SSW 10.4 mph - N/A Fog Fog
2:28 AM 39.2 °F 32.5 °F 39.2 °F 100% 29.61 in 1.0 mi SSW 10.4 mph - N/A   Clear
2:58 AM 39.0 °F 32.8 °F 38.3 °F 97% 29.63 in 0.8 mi SSW 9.2 mph - N/A Fog Fog
3:13 AM 39.2 °F 32.0 °F 37.4 °F 93% 29.61 in 0.2 mi SSW 11.5 mph - N/A Fog Fog
3:58 AM 41.9 °F 36.3 °F 41.2 °F 97% 29.62 in 0.2 mi SSW 9.2 mph - N/A Fog Fog
4:13 AM 41.0 °F 35.8 °F 41.0 °F 100% 29.61 in 0.5 mi South 8.1 mph - N/A Fog Fog
4:18 AM 41.0 °F 35.8 °F 41.0 °F 100% 29.60 in 0.2 mi South 8.1 mph - N/A Fog Fog
4:58 AM 42.6 °F 37.8 °F 41.5 °F 96% 29.62 in 0.1 mi South 8.1 mph - N/A Fog Fog
5:58 AM 43.9 °F 37.9 °F 42.3 °F 94% 29.61 in 0.1 mi South 11.5 mph - N/A Fog Fog
6:58 AM 43.3 °F 37.7 °F 41.5 °F 93% 29.62 in 0.1 mi South 10.4 mph - N/A Fog Fog
7:58 AM 44.6 °F 39.7 °F 42.8 °F 93% 29.63 in 0.2 mi SSW 9.2 mph - N/A Fog Fog
8:43 AM 46.4 °F 41.1 °F 44.6 °F 93% 29.63 in 1.5 mi SSW 11.5 mph - N/A   Mist
8:48 AM 46.4 °F 41.1 °F 44.6 °F 93% 29.61 in 0.5 mi SSW 11.5 mph - N/A Fog Fog
8:58 AM 46.4 °F 40.7 °F 43.9 °F 91% 29.63 in 0.8 mi SSW 12.7 mph - N/A   Mist
9:18 AM 46.4 °F 40.7 °F 44.6 °F 93% 29.61 in 1.5 mi SSW 12.7 mph - N/A   Overcast
9:33 AM 48.2 °F - 44.6 °F 87% 29.61 in 2.0 mi SSW 15.0 mph - N/A   Overcast
9:52 AM 48.2 °F - 46.4 °F 93% 29.61 in 2.5 mi SSW 12.7 mph - N/A   Overcast
9:58 AM 48.0 °F - 45.7 °F 92% 29.63 in 2.5 mi SSW 11.5 mph - N/A   Overcast
10:08 AM 48.2 °F - 46.4 °F 93% 29.61 in 3.0 mi SSW 11.5 mph - N/A   Overcast
10:18 AM 48.2 °F - 46.4 °F 93% 29.61 in 4.0 mi South 10.4 mph - N/A   Mostly Cloudy
10:33 AM 50.0 °F - 46.4 °F 87% 29.61 in 5.0 mi South 10.4 mph - N/A   Scattered Clouds
10:58 AM 51.3 °F - 47.8 °F 88% 29.62 in 5.0 mi South 10.4 mph - N/A   Mostly Cloudy
11:58 AM 56.1 °F - 49.3 °F 78% 29.61 in 10.0 mi SSW 13.8 mph - N/A   Mostly Cloudy
12:58 PM 59.5 °F - 49.3 °F 69% 29.57 in 10.0 mi SSW 16.1 mph - N/A   Scattered Clouds
1:58 PM 62.6 °F - 47.7 °F 58% 29.55 in 10.0 mi SSW 15.0 mph - N/A   Scattered Clouds
2:58 PM 63.1 °F - 47.5 °F 57% 29.54 in 10.0 mi South 11.5 mph - N/A   Clear
7:58 PM 51.4 °F - 45.5 °F 80% 29.60 in 10.0 mi SSE 6.9 mph - N/A   Scattered Clouds
8:58 PM 49.5 °F - 44.6 °F 83% 29.61 in 10.0 mi South 5.8 mph - N/A   Mostly Cloudy
9:58 PM 47.5 °F - 43.9 °F 87% 29.61 in 10.0 mi South 5.8 mph - N/A   Mostly Cloudy
10:58 PM 49.3 °F - 45.9 °F 88% 29.61 in 10.0 mi SSE 6.9 mph - N/A   Mostly Cloudy
11:58 PM 49.6 °F - 47.1 °F 91% 29.60 in 10.0 mi SSE 8.1 mph - N/A   Mostly Cloudy